Precipitable_Water
0.86 0.87 0.80 0.83 0.88 0.98 1.16 1.26 1.31 1.36 1.34 1.35 1.37 1.36 1.36 1.42 1.29 1.22 1.14 1.12 1.12 1.10 1.06 1.05 1.05 1.05 1.05 1.04 1.00 1.02 0.98 0.94
0.83 0.85 0.79 0.81 0.84 0.91 1.11 1.23 1.29 1.32 1.27 1.18 1.24 1.24 1.30 1.33 1.32 1.21 1.13 1.11 1.09 1.05 1.03 1.05 1.08 1.00 1.01 1.04 1.03 1.04 1.04 1.04
0.75 0.77 0.76 0.76 0.76 0.82 1.00 1.15 1.24 1.28 1.29 1.25 1.26 1.27 1.30 1.28 1.28 1.21 1.15 1.12 1.12 1.09 1.06 1.08 1.09 1.02 1.00 1.01 1.02 1.02 1.05 1.08
0.67 0.67 0.73 0.70 0.70 0.75 0.86 0.99 1.08 1.14 1.19 1.20 1.22 1.24 1.24 1.20 1.18 1.16 1.16 1.18 1.14 1.14 1.14 1.10 1.08 1.06 1.00 0.99 1.01 1.03 0.98 1.07
0.66 0.64 0.66 0.66 0.66 0.75 0.79 0.86 0.92 0.95 0.99 1.01 1.03 1.04 1.06 1.10 1.14 1.14 1.12 1.19 1.16 1.16 1.13 1.12 1.03 1.04 1.03 1.01 1.00 1.00 1.03 1.00
0.70 0.67 0.66 0.70 0.65 0.65 0.75 0.80 0.84 0.87 0.87 0.92 0.96 0.92 0.93 0.97 0.98 0.98 1.01 1.05 1.07 1.07 1.06 1.05 1.02 1.05 1.10 1.10 1.07 1.11 1.13 1.08
0.76 0.79 0.74 0.71 0.68 0.65 0.69 0.74 0.78 0.81 0.81 0.81 0.85 0.83 0.84 0.85 0.85 0.85 0.87 0.89 0.94 0.97 0.97 0.99 1.03 1.07 1.06 1.09 1.12 1.12 1.10 1.06
0.71 0.73 0.68 0.66 0.69 0.67 0.66 0.70 0.73 0.79 0.80 0.80 0.79 0.82 0.86 0.84 0.82 0.82 0.81 0.81 0.82 0.85 0.92 0.93 0.94 0.95 0.98 0.99 1.00 1.03 1.07 1.08
0.66 0.71 0.67 0.69 0.73 0.70 0.68 0.67 0.70 0.78 0.80 0.79 0.82 0.82 0.85 0.87 0.87 0.86 0.86 0.85 0.86 0.90 0.90 0.93 0.94 0.92 0.93 0.97 1.03 1.09 1.19 1.20
0.59 0.69 0.70 0.69 0.72 0.73 0.70 0.69 0.70 0.75 0.79 0.81 0.80 0.82 0.83 0.85 0.88 0.91 0.92 0.94 0.94 0.93 0.92 0.94 0.96 1.01 1.05 1.13 1.16 1.23 1.19 1.19
0.57 0.64 0.71 0.76 0.80 0.87 0.90 0.84 0.75 0.75 0.79 0.82 0.82 0.83 0.83 0.84 0.86 0.87 0.91 0.92 0.95 0.95 0.94 0.96 1.02 1.10 1.19 1.22 1.22 1.26 1.15 1.16
0.56 0.62 0.73 0.81 0.85 0.88 0.92 0.95 0.95 0.87 0.84 0.81 0.83 0.85 0.88 0.91 0.90 0.92 0.92 0.97 1.00 1.01 1.10 1.22 1.28 1.29 1.26 1.21 1.21 1.23 1.17 1.15
0.61 0.63 0.65 0.74 0.78 0.83 0.89 0.96 0.95 1.02 0.96 0.89 0.84 0.84 0.86 0.85 0.84 0.88 0.92 0.96 1.06 1.10 1.18 1.22 1.19 1.16 1.26 1.16 1.14 1.20 1.15 1.11
0.59 0.63 0.64 0.66 0.68 0.69 0.73 0.85 0.90 0.96 1.00 0.96 0.93 0.93 0.91 0.93 0.89 0.94 0.98 1.01 1.08 1.13 1.17 1.11 1.08 1.09 1.11 1.12 1.15 1.17 1.13 1.12
0.55 0.56 0.60 0.66 0.68 0.70 0.63 0.66 0.76 0.83 0.89 0.90 0.87 0.88 0.89 0.95 0.91 0.94 0.99 1.08 1.11 1.15 1.15 1.12 1.15 1.11 1.08 1.10 1.11 1.09 1.06 1.03
0.52 0.53 0.57 0.62 0.67 0.71 0.71 0.71 0.69 0.75 0.79 0.86 0.84 0.88 0.94 0.96 0.95 0.97 1.02 1.10 1.14 1.13 1.13 1.17 1.18 1.08 1.10 1.07 1.03 1.00 0.98 0.97
0.53 0.54 0.59 0.61 0.65 0.68 0.71 0.68 0.66 0.72 0.73 0.76 0.86 0.89 0.94 0.99 1.03 1.02 1.04 1.07 1.12 1.11 1.07 1.13 1.11 1.09 1.09 1.05 1.02 0.99 0.96 0.92
0.57 0.56 0.60 0.60 0.62 0.68 0.69 0.71 0.74 0.71 0.69 0.71 0.77 0.85 0.88 1.01 1.08 1.05 1.02 1.03 1.06 1.07 1.09 1.06 1.03 1.04 1.03 1.03 1.03 1.01 0.94 0.87
0.55 0.61 0.62 0.64 0.65 0.69 0.71 0.77 0.76 0.73 0.73 0.75 0.77 0.79 0.81 0.92 0.98 1.01 1.01 1.00 0.98 1.00 1.01 0.98 0.96 0.98 0.99 1.00 1.03 0.96 0.85 0.77
Wind_Speed
6 5 4 4 4 5 6 11 13 18 18 18 22 22 24 27 29 28 27 27 27 25 24 23 21 19 17 15 14 13 13 12
6 5 4 4 3 2 5 11 15 18 18 18 21 22 24 26 28 27 28 28 27 26 24 22 20 19 18 17 16 15 14 14
6 6 5 4 3 1 4 10 13 15 20 17 20 23 23 25 27 27 27 28 26 26 25 23 22 20 19 18 17 16 15 15
8 6 6 4 4 3 6 9 11 12 15 17 19 23 23 25 26 27 26 26 27 27 25 23 22 20 19 18 18 18 16 16
8 8 7 6 5 5 7 9 10 11 12 14 16 20 22 23 25 24 24 25 24 24 24 23 20 20 19 19 19 20 20 19
10 10 9 8 8 8 8 9 10 11 12 14 15 16 19 21 21 22 23 22 23 23 22 22 21 21 21 21 20 20 21 22
11 11 11 10 10 10 10 10 11 11 12 13 15 16 17 19 20 20 21 22 22 22 22 22 21 20 21 22 22 23 24 25
14 13 14 13 12 13 13 13 13 13 13 14 15 16 17 19 20 21 21 22 23 24 24 24 23 23 23 24 26 26 26 27
16 15 15 15 15 15 15 15 15 15 15 15 16 17 17 18 20 21 22 23 23 25 26 25 25 26 26 26 27 28 28 28
16 16 16 16 16 17 18 17 17 18 18 17 17 18 19 19 20 21 22 24 25 26 26 26 27 27 28 28 28 30 34 28
14 16 16 16 16 17 18 19 20 20 20 21 21 21 21 22 22 24 24 24 24 26 27 28 30 31 31 31 29 28 28 30
14 15 17 18 18 19 19 20 20 21 22 23 23 23 24 24 25 25 26 26 26 28 28 31 34 35 38 37 32 29 28 28
15 15 14 17 19 20 22 23 24 24 24 24 25 26 26 28 29 30 29 28 30 31 31 30 30 35 35 36 32 29 29 29
16 16 16 16 17 18 21 23 24 24 26 25 25 24 26 26 24 27 32 31 32 32 30 25 24 20 17 26 29 30 31 30
18 17 17 17 16 16 17 19 21 22 24 25 26 26 26 26 24 23 25 28 30 34 31 27 26 24 24 26 28 29 30 30
19 20 20 19 18 17 17 18 20 21 23 25 26 27 27 27 26 25 25 24 24 24 29 29 28 28 28 28 29 30 29 29
21 22 22 21 20 20 19 18 18 20 22 23 24 25 26 27 27 26 26 26 25 26 27 28 28 28 29 29 29 28 28 29
25 26 26 24 24 23 22 21 20 20 20 21 22 23 24 25 26 26 26 26 26 27 28 29 30 30 30 28 27 27 27 29
27 28 26 25 23 24 23 21 21 21 21 21 21 21 22 23 24 26 26 26 27 28 29 30 29 29 28 28 28 29 29 29
Wind_Direction
269 277 281 280 280 281 230 195 191 184 184 191 190 194 193 193 191 195 193 195 196 198 200 204 209 214 217 220 222 230 230 228
257 256 268 267 284 291 200 193 190 190 194 191 193 195 197 195 194 199 200 200 203 206 210 212 215 218 223 224 228 233 233 234
246 241 247 247 245 189 156 174 181 196 198 200 199 196 193 196 200 199 199 203 206 210 214 216 218 224 226 227 230 234 237 239
235 226 218 218 204 172 168 167 174 178 190 199 201 201 203 201 201 202 206 209 213 214 215 218 221 222 222 228 231 235 243 245
231 223 218 211 199 178 167 169 172 176 180 183 186 190 193 199 200 203 206 205 206 207 210 213 216 219 227 234 239 245 246 249
228 222 219 213 203 192 182 178 178 177 177 177 178 180 186 189 193 196 198 200 203 206 211 217 223 230 236 240 244 246 252 254
229 226 220 215 209 203 196 193 191 188 186 185 187 187 190 194 198 202 205 209 213 217 221 224 227 233 240 242 247 253 255 258
225 222 218 214 213 210 206 203 201 199 199 198 198 201 204 208 210 212 215 218 223 225 226 229 235 243 248 250 255 256 258 259
226 223 218 216 215 214 212 210 209 209 209 211 212 213 215 217 219 222 225 228 230 231 234 238 243 250 252 254 256 257 258 260
223 219 218 218 220 222 221 221 222 222 222 222 223 224 225 226 227 230 232 235 237 237 239 243 250 255 253 256 257 257 258 254
221 221 222 225 227 226 226 228 229 230 230 231 232 234 235 236 238 238 239 239 240 242 245 250 255 257 255 255 256 258 255 259
228 230 234 234 234 233 233 233 233 235 235 236 237 239 241 243 244 245 243 244 246 248 252 257 259 262 257 252 254 254 256 258
241 239 237 237 238 239 240 240 240 240 240 239 240 243 245 249 248 247 245 246 252 253 257 261 265 273 258 241 245 251 257 259
243 238 237 241 242 245 244 242 242 242 239 241 243 246 244 247 251 250 244 254 255 253 255 250 258 264 248 235 246 255 261 262
243 239 242 245 245 248 245 243 241 241 242 244 245 248 247 247 250 252 250 255 254 248 242 252 253 256 254 256 259 263 265 263
247 244 245 245 245 246 249 247 244 243 246 247 248 249 248 247 249 252 254 257 253 246 243 249 253 255 260 261 262 264 263 263
252 248 249 246 247 248 249 250 249 248 249 249 249 251 250 248 248 251 253 255 254 249 248 252 252 257 260 262 263 262 263 264
254 249 248 250 249 248 249 250 248 250 252 252 252 252 251 249 249 251 253 253 253 251 252 254 258 260 259 260 261 262 264 268
256 249 250 251 249 249 250 248 251 252 254 253 252 254 253 251 251 252 253 254 256 255 256 258 259 258 257 260 261 265 268 269